Regional Weather Roundup
Issued by NWS Midland/Odessa, TX

Skip options and go directly to product.
Home | Oldest Version | Next Version | Current Version | All | Text Only | Save Text | Print | Product List | Glossary On

Skip product version selection by date and time.   
104
ASUS44 KMAF 270902
RWRMAF
MIDLAND AREA WEATHER ROUNDUP
NATIONAL WEATHER SERVICE MIDLAND TX
300 AM CST THU NOV 27 2014

...IN SOUTHWEST TEXAS AND SOUTHEAST NEW MEXICO...

CITY           SKY/WX    TMP DP  RH WIND       PRES   REMARKS
ALPINE         CLEAR     33  22  64 SW6       30.44R WCI  27
ANDREWS        FAIR      35  30  83 CALM      30.41S
ARTESIA        NOT AVBL
BIG SPRING     CLEAR     41  31  66 CALM      30.43R
CARLSBAD       CLEAR     40  27  59 S9        30.39R WCI  34
DRYDEN           N/A     48  31  51 N8        30.36R
FORT STOCKTON  PTCLDY    44  26  49 SE8       30.37R WCI  39
GUAD PASS      NOT AVBL
HOBBS          PTCLDY    36  28  75 E7        30.41S WCI  30
MARFA          CLEAR     30  18  59 NW3       30.40R
MIDLAND AIRPK  CLEAR     40  32  75 CALM      30.41S
MIDLAND INTL   CLEAR     38  30  73 NE3       30.40R
ODESSA         CLEAR     37  29  72 E7        30.41R WCI  32
PECOS          PTCLDY    40  29  65 NE8       30.37S WCI  34
PRESIDIO       FAIR      45  24  43 CALM      30.33S
SEMINOLE       PTCLDY    36  30  79 CALM      30.42R
SNYDER         CLEAR     37  32  82 NE7       30.42S WCI  32
WINK           CLEAR     34  24  67 NE5       30.39R WCI  30
$$
...OTHER STATIONS IN TEXAS...

CITY           SKY/WX    TMP DP  RH WIND       PRES   REMARKS
ABILENE        CLEAR     41  32  70 N6        30.44R WCI  37
AMARILLO       PTCLDY    31  20  63 S13       30.41F WCI  21
AUSTIN         CLEAR     40  35  83 N5        30.40R WCI  37
BROWNSVILLE    FOG       50  50 100 CALM      30.32R VSB 1/2
CORPUS CHRISTI CLEAR     49  47  93 CALM      30.33S
DALLAS FTW     CLEAR     41  27  57 N9        30.46R WCI  35
DEL RIO        CLEAR     43  34  70 W3        30.34S
EL PASO        CLEAR     40  19  43 N3        30.36R
HOUSTON INT    CLEAR     48  38  68 N5        30.37R
LUBBOCK        PTCLDY    34  23  64 E7        30.42R WCI  28
SAN ANGELO     CLEAR     35  30  82 NW3       30.42R
SAN ANTONIO    CLEAR     51  34  52 CALM      30.38R
WACO           CLEAR     44  35  70 N7        30.42R
WICHITA FALLS  NOT AVBL
$$
...OTHER LOCATIONS IN NEW MEXICO...

CITY           SKY/WX    TMP DP  RH WIND       PRES   REMARKS
ALAMAGORDO     CLEAR     36  19  51 MISG      30.36S
ALBUQUERQUE    CLEAR     37  22  54 CALM      30.44R
CANNON AFB     PTCLDY    32  24  72 CALM      30.41R
CLOVIS         MOCLDY    28  19  69 S3        30.41R
HOLLOMAN AFB   CLEAR     34  19  54 E3        30.36R
ROSWELL        PTCLDY    35  26  69 SW5       30.39R WCI  31
RUIDOSO        CLEAR     37  19  48 S5        30.44R WCI  34
SANTA FE       PTCLDY    32  21  64 N12       30.44R WCI  23
TRUTH OR CONSE CLEAR     40  20  44 W5        30.39S WCI  37
TUCUMCARI      PTCLDY    27  22  81 N5        30.39R WCI  22
$$

USA.gov is the U.S. government's official web portal to all federal, state and local government web resources and services.